User: anonymous   Login
Location: Bismarck
(46.7731°N, 100.8200°W)
Time: 06:02:46
(UTC-05:00)
Language:

Cosmos 2219 Rocket - Orbit

View from above orbital plane
View from above orbital plane
View from above satellite
View from above satellite

Ground track
Ground track

The orbit data is extracted from the following two-line orbital elements,

1 22220U 92076B   14304.42315817  .00000119  00000-0  84043-4 0  4466
2 22220 071.0011 279.3713 0015251 292.7535 179.7841 14.16330723134879
Epoch (UTC): 31 October 2014 10:09:20
Eccentricity: 0.0015251
inclination: 71.0011°
perigee height: 827 km
apogee height: 849 km
right ascension of ascending node: 279.3713°
argument of perigee: 292.7535°
revolutions per day: 14.16330723
mean anomaly at epoch: 179.7841°
orbit number at epoch: 13487

The dashed part of the orbit path shows where the satellite is in the earth's shadow,  

DLR